Orbital Elements at Epoch 2459000.5 (2020-May-31.0) TDB
Reference: JPL 23 (heliocentric ecliptic J2000)
Element | Value | Uncertainty (1-sigma) | Units |
e | .1640914376692062 | 4.4576e-08 | |
a | 2.289313021430516 | 1.0052e-08 | au |
q | 1.913656356469148 | 1.0328e-07 | au |
i | 4.898927502606077 | 4.3192e-06 | deg |
node | 246.8888021220273 | 5.3267e-05 | deg |
peri | 150.5738542058263 | 5.4915e-05 | deg |
M | 198.1912290556148 | 1.6341e-05 | deg |
tp | 2459569.164022825275 (2021-Dec-20.66402283) | 5.9908e-05 | TDB |
period | 1265.191293539103 3.46 | 8.3333e-06 2.282e-08 | d yr |
n | .2845419517494282 | 1.8742e-09 | deg/d |
Q | 2.664969686391883 | 1.1702e-08 | au |
|
| | Orbit Determination Parameters
Additional Information
|